Regional Weather Roundup
Issued by NWS

Home | Current Version | Previous Version | Text Only | Print | Product List | Glossary Off
Versions: 1 2 3 4 5 6 7 8 9 10 11 12 13 14 15 16 17 18 19 20 21 22 23 24 25 26 27 28 29 30 31 32 33 34 35 36 37 38 39 40 41 42 43 44 45 46 47 48 49 50

000
ASUS44 KMEG 181710
RWRTN
TENNESSEE HOURLY STATE WEATHER ROUNDUP
NATIONAL WEATHER SERVICE MEMPHIS TN
1200 PM CDT SAT APR 18 2015

TNZ002-004-019-021-049-052-054-088>092-181800-
WEST TENNESSEE

CITY           SKY/WX    TMP DP  RH WIND       PRES   REMARKS
MEMPHIS INTL   PTSUNNY   73  62  68 E9        29.98F
NWS MEMPHIS      N/A     73 N/A N/A MISG        N/A
JACKSON        CLOUDY    73  63  70 E6        29.98R
DYERSBURG      MOSUNNY   73  55  53 E10       29.99F
UNION CITY     MOSUNNY   72  32  23 E8        29.99S
PARIS          SUNNY     72  61  68 VRB5      30.00F
LEXINGTON      SUNNY     72  63  73 VRB6      29.97F
SAVANNAH       MOSUNNY   73  32  21 E6        29.98R
$$

TNZ008-025-027-028-033-062-065-066-181800-
NORTH MIDDLE TENNESSEE

CITY           SKY/WX    TMP DP  RH WIND       PRES   REMARKS
NASHVILLE      CLOUDY    75  60  59 E3        29.99F
CLARKSVILLE    MOSUNNY   74  61  63 SE9       29.99F
SMYRNA         CLOUDY    78  60  53 E12       29.99F
COOKEVILLE     SUNNY     77  61  57 VRB6      29.98F
CROSSVILLE     CLOUDY    73  58  59 E8        30.03S
$$

TNZ061-075-076-078-094-096-097-181800-
SOUTH MIDDLE TENNESSEE

CITY           SKY/WX    TMP DP  RH WIND       PRES   REMARKS
FAYETTEVILLE   SUNNY     72  59  64 S6        29.99S
TULLAHOMA      MOSUNNY   73  59  60 CALM      30.00F
WINCHESTER     MOSUNNY   75  61  60 VRB6      29.99S
MCMINNVILLE    SUNNY     73  64  73 VRB3      29.99F
COLUMBIA       SUNNY     73  32  21 E7        29.97F
SHELBYVILLE    SUNNY     75  63  64 NE5       30.00F
$$

TNZ017-018-042-046-047-181800-
NORTHEAST TENNESSEE

CITY           SKY/WX    TMP DP  RH WIND       PRES   REMARKS
TRI CITIES     PTSUNNY   76  57  51 VRB3      30.00F
ELIZABETHTON   SUNNY     75  54  46 CALM      29.99F HAZE
$$

TNZ012-013-036-069-073-074-181800-
CENTRAL EAST TENNESSEE

CITY           SKY/WX    TMP DP  RH WIND       PRES   REMARKS
KNOXVILLE      CLOUDY    73  62  68 N7        29.98F
OAK RIDGE      PTSUNNY   75  59  57 VRB6      30.00F
GATLINBURG     SUNNY     73  61  64 CALM      29.98F
MORRISTOWN     SUNNY     73  59  60 E9        30.01F
$$

TNZ083-085-099-181800-
SOUTHEAST TENNESSEE

CITY           SKY/WX    TMP DP  RH WIND       PRES   REMARKS
CHATTANOOGA    PTSUNNY   74  62  66 CALM      29.99F
$$

SKY/WX REPORTED AS FAIR MEANS FEW OR NO CLOUDS BELOW
12 THOUSAND FEET.



USA.gov is the U.S. government's official web portal to all federal, state and local government web resources and services.